Location: Winthrop
(48.4780°N, 120.1850°W)
Time: 20:59:29
(UTC-08:00)

Vanguard 3 - All Passes

Search period start: 29 January 2023 00:00
Search period end: 08 February 2023 00:00
Orbit: 509 x 3252 km, 33.4° (Epoch: 29 January)

Date Brightness Start Highest point End Pass type
(mag) Time Alt. Az. Time Alt. Az. Time Alt. Az.
29 Jan - 00:53:35 10° W 01:09:34 38° SSW 01:26:01 10° SE visible
29 Jan - 03:11:03 10° W 03:22:34 19° SW 03:33:19 10° S visible
29 Jan - 19:15:33 10° SSW 19:25:11 30° SSE 19:38:58 10° E visible
29 Jan - 21:24:57 10° WSW 21:37:56 46° S 21:55:47 10° ESE visible
29 Jan - 23:36:59 10° WSW 23:52:20 44° SSW 00:10:07 10° SE visible
30 Jan - 01:51:47 10° W 02:06:15 28° SW 02:20:33 10° SSE visible
30 Jan - 18:03:08 10° S 18:10:00 19° SE 18:19:11 10° E visible
30 Jan - 20:10:25 10° SW 20:21:23 40° SSE 20:37:30 10° E visible
30 Jan - 22:21:11 10° WSW 22:35:03 47° S 22:53:12 10° ESE visible
31 Jan - 00:34:18 10° W 00:49:24 36° SSW 01:05:52 10° SSE visible
31 Jan - 02:52:01 10° WSW 03:02:25 17° SW 03:12:33 10° SSW visible
31 Jan - 18:56:43 10° SSW 19:05:34 30° SSE 19:18:39 10° E visible
31 Jan - 21:06:05 10° WSW 21:18:06 45° S 21:35:27 10° ESE visible
31 Jan - 23:17:54 10° WSW 23:32:15 42° SSW 23:49:52 10° SE visible
01 Feb - 01:32:35 10° W 01:46:04 26° SW 02:00:06 10° S visible
01 Feb - 17:44:13 10° S 17:50:31 19° SE 17:59:03 10° E visible
01 Feb - 19:51:39 10° SW 20:01:43 39° SSE 20:17:05 10° ESE visible
01 Feb - 22:02:17 10° WSW 22:15:08 45° S 22:32:50 10° ESE visible
02 Feb - 00:15:11 10° W 00:29:16 34° SSW 00:45:28 10° SSE visible
02 Feb - 02:33:26 10° WSW 02:42:16 15° SW 02:51:12 10° SSW visible
02 Feb - 18:37:59 10° SSW 18:46:04 30° SSE 18:58:18 10° E visible
02 Feb - 20:47:19 10° WSW 20:58:22 44° S 21:14:59 10° ESE visible
02 Feb - 22:58:56 10° WSW 23:12:14 40° SSW 23:29:24 10° SE visible
03 Feb - 01:13:36 10° W 01:25:55 23° SW 01:39:18 10° S night (unlit)
03 Feb - 17:25:26 10° S 17:31:09 19° SE 17:38:56 10° ESE visible
03 Feb - 19:32:59 10° SW 19:42:11 38° SSE 19:56:37 10° ESE visible
03 Feb - 21:43:29 10° WSW 21:55:18 43° S 22:12:18 10° SE visible
03 Feb - 23:56:15 10° W 00:09:11 31° SSW 00:24:46 10° SSE visible
04 Feb - 02:15:34 10° WSW 02:22:10 13° SW 02:28:59 10° SSW night (unlit)
04 Feb - 18:19:21 10° SSW 18:26:41 29° SSE 18:37:56 10° E visible
04 Feb - 20:28:39 10° WSW 20:38:45 42° S 20:54:25 10° ESE visible
04 Feb - 22:40:07 10° WSW 22:52:19 37° SSW 23:08:44 10° SE visible
05 Feb - 00:54:53 10° WSW 01:05:50 21° SW 01:18:06 10° S night (unlit)
05 Feb - 17:06:45 10° S 17:11:52 18° SE 17:18:50 10° ESE daylight
05 Feb - 19:14:24 10° SW 19:22:46 37° SSE 19:36:07 10° ESE visible
05 Feb - 21:24:48 10° WSW 21:35:36 40° S 21:51:36 10° SE visible
05 Feb - 23:37:29 10° WSW 23:49:12 28° SSW 00:03:48 10° SSE visible
06 Feb - 02:00:12 10° SW 02:02:08 10° SW 02:04:06 10° SW night (unlit)
06 Feb - 18:00:47 10° SSW 18:07:25 28° SSE 18:17:36 10° ESE visible
06 Feb - 20:10:05 10° WSW 20:19:15 39° S 20:33:47 10° ESE visible
06 Feb - 22:21:25 10° WSW 22:32:30 33° SSW 22:47:50 10° SE visible
07 Feb - 00:36:34 10° WSW 00:45:50 18° SW 00:56:26 10° S visible
07 Feb - 16:48:09 10° S 16:52:41 18° SE 16:58:48 10° ESE daylight
07 Feb - 18:55:54 10° SW 19:03:27 35° SSE 19:15:36 10° ESE visible
07 Feb - 21:06:12 10° WSW 21:15:59 36° S 21:30:48 10° SE visible
07 Feb - 23:18:55 10° WSW 23:29:19 24° SSW 23:42:32 10° SSE visible
